Barter Island, AK

6:08 PM AKDT on April 26, 2018 (GMT -0800)
Barter Island LRRS

Weather History for PABA - April, 2013

Change the Weather History Date:

Sunday, April 28, 2013

  Actual Average Record
Temperature  
Mean Temperature 16 °F -  
Max Temperature 17 °F 17 °F 32 °F (2004)
Min Temperature 10 °F 4 °F -11 °F (1999)
Degree Days  
Heating Degree Days 50    
Moisture  
Dew Point 15 °F    
Average Humidity 93    
Maximum Humidity 100    
Minimum Humidity 87    
Precipitation  
Precipitation 0.00 in - - ()
Sea Level Pressure  
Sea Level Pressure 30.08 in    
Wind  
Wind Speed 22 mph (WNW)    
Max Wind Speed 33 mph    
Max Gust Speed 40 mph    
Visibility 2 miles    
Events Fog , Snow    
Averages and records for this station are not official NWS values.
T = Trace of Precipitation, MM = Missing Value Source: NWS Daily Summary

Daily Weather History Graph

Daily Weather History Graph

Search for Another Location

Airport or City:

Astronomy

Apr. 28, 2013 Rise Set
Actual Time 4:17 AM AKDT 10:50 PM AKDT
Civil Twilight 2:04 AM AKDT 12:59 AM AKDT
Nautical Twilight Sun does not set Sun does not set
Astronomical Twilight Sun does not set Sun does not set
Moon No Moon Rise No Moon Set
Length of Visible Light 22h 54m
Length of Day
18h 32m
Waning Gibbous, 87% of the Moon is Illuminated
Apr 28
Waning Gibbous
May 2
Last Quarter
May 9
New
May 17
First Quarter
May 24
Full

Hourly Weather History & Observations

Time (AKDT) Temp. Windchill Dew Point Humidity Pressure Visibility Wind Dir Wind Speed Gust Speed Precip Events Conditions
12:01 AM 10.0 °F -9.5 °F 7.0 °F 87% 30.16 in 3.0 mi West 21.9 mph - N/A Snow Light Snow
12:25 AM 10.4 °F -10.3 °F 8.6 °F 92% 30.15 in 2.0 mi West 25.3 mph - 0.00 in Snow Light Snow
12:47 AM 10.4 °F -11.0 °F 8.6 °F 92% 30.14 in 1.8 mi West 27.6 mph - 0.00 in Snow Light Snow
1:01 AM 10.9 °F -10.3 °F 9.0 °F 92% 30.14 in 1.8 mi West 27.6 mph 32.2 mph 0.00 in Snow Light Snow
2:01 AM 12.0 °F -8.1 °F 10.0 °F 92% 30.12 in 1.2 mi West 25.3 mph 32.2 mph 0.00 in Snow Light Snow
2:31 AM 12.2 °F -8.6 °F 10.4 °F 92% 30.11 in 1.0 mi West 27.6 mph 36.8 mph 0.00 in Snow Light Snow
2:38 AM 12.2 °F -8.9 °F 10.4 °F 92% 30.11 in 1.5 mi West 28.8 mph 35.7 mph 0.00 in Snow Light Snow
3:01 AM 12.2 °F -10.2 °F 10.4 °F 92% 30.10 in 1.0 mi West 33.4 mph 39.1 mph 0.00 in Snow Light Snow
3:32 AM 12.2 °F -9.6 °F 10.4 °F 92% 30.09 in 0.5 mi West 31.1 mph 36.8 mph N/A Fog , Snow Light Snow
3:56 AM 12.2 °F -8.9 °F 12.2 °F 100% 30.08 in 0.2 mi West 28.8 mph 40.3 mph N/A Fog , Snow Snow
4:01 AM 12.9 °F -9.2 °F 12.0 °F 96% 30.08 in 0.2 mi West 33.4 mph 40.3 mph N/A Fog , Snow Snow
5:01 AM 14.0 °F -6.5 °F 12.0 °F 92% 30.07 in 0.2 mi West 28.8 mph 35.7 mph 0.00 in Fog , Snow Snow
6:01 AM 15.1 °F -5.3 °F 12.9 °F 91% 30.05 in 0.2 mi West 29.9 mph 33.4 mph 0.00 in Fog , Snow Snow
6:37 AM 15.8 °F -4.1 °F 14.0 °F 93% 30.04 in 0.2 mi West 28.8 mph 35.7 mph N/A Fog , Snow Light Snow
7:01 AM 15.1 °F -4.0 °F 14.0 °F 95% 30.03 in 0.2 mi West 25.3 mph 34.5 mph N/A Fog , Snow Snow
7:25 AM 15.8 °F -4.1 °F 14.0 °F 93% 30.04 in 0.5 mi West 28.8 mph 36.8 mph 0.00 in Fog , Snow Light Snow
8:01 AM 16.0 °F -3.2 °F 14.0 °F 92% 30.04 in 0.5 mi West 26.5 mph - 0.00 in Fog , Snow Light Snow
8:41 AM 15.8 °F -2.7 °F 15.8 °F 100% 30.04 in 0.8 mi West 24.2 mph 28.8 mph 0.00 in Snow Light Snow
8:51 AM 17.6 °F -1.3 °F 15.8 °F 93% 30.04 in 1.0 mi West 27.6 mph - 0.00 in Snow Light Snow
9:01 AM 17.6 °F 0.1 °F 15.8 °F 93% 30.03 in 0.8 mi West 23.0 mph 29.9 mph 0.00 in Snow Light Snow
9:11 AM 17.6 °F 0.1 °F 15.8 °F 93% 30.04 in 0.5 mi West 23.0 mph - 0.00 in Fog , Snow Light Snow
9:31 AM 17.6 °F -0.3 °F 15.8 °F 93% 30.04 in 0.8 mi WNW 24.2 mph - 0.00 in Snow Light Snow
9:46 AM 17.6 °F 0.9 °F 15.8 °F 93% 30.03 in 1.0 mi WNW 20.7 mph - 0.00 in Snow Light Snow
10:22 AM 17.6 °F 1.3 °F 15.8 °F 93% 30.04 in 1.2 mi WNW 19.6 mph - N/A Snow Light Snow
10:31 AM 17.6 °F 1.7 °F 15.8 °F 93% 30.04 in 0.8 mi WNW 18.4 mph - N/A Snow Light Snow
11:01 AM 17.6 °F 1.7 °F 15.8 °F 93% 30.05 in 1.0 mi WNW 18.4 mph - N/A Snow Light Snow
11:26 AM 19.4 °F 4.5 °F 17.6 °F 93% 30.05 in 1.0 mi WNW 17.3 mph - N/A Snow Light Snow
12:01 PM 19.0 °F 4.0 °F 17.1 °F 92% 30.06 in 2.5 mi WNW 17.3 mph - N/A Snow Light Snow
12:19 PM 19.4 °F 4.5 °F 17.6 °F 93% 30.06 in 1.2 mi West 17.3 mph - 0.00 in   Mist
12:45 PM 19.4 °F 5.0 °F 17.6 °F 93% 30.07 in 1.0 mi West 16.1 mph - N/A Snow Light Snow
12:56 PM 19.4 °F 4.1 °F 17.6 °F 93% 30.07 in 0.8 mi West 18.4 mph - N/A Snow Light Snow
1:01 PM 19.4 °F 5.0 °F 17.6 °F 93% 30.07 in 1.2 mi West 16.1 mph - N/A Snow Light Snow
1:29 PM 19.4 °F 3.6 °F 17.6 °F 93% 30.07 in 2.5 mi West 19.6 mph - N/A   Mist
2:01 PM 19.9 °F 5.7 °F 18.0 °F 92% 30.07 in 4.0 mi WNW 16.1 mph - N/A   Mist
3:01 PM 21.0 °F 6.2 °F 18.0 °F 88% 30.08 in 6.0 mi WNW 18.4 mph - 0.00 in   Mist
4:01 PM 21.0 °F 7.6 °F 18.0 °F 88% 30.08 in 4.0 mi WNW 15.0 mph - 0.00 in   Mist
5:01 PM 21.0 °F 8.6 °F 18.0 °F 88% 30.08 in 4.0 mi WNW 12.7 mph - 0.00 in Snow Light Snow
6:01 PM 21.0 °F 8.6 °F 18.0 °F 88% 30.09 in 7.0 mi WNW 12.7 mph - 0.00 in   Unknown
6:53 PM 19.4 °F 11.5 °F 17.6 °F 93% 30.10 in 2.0 mi NW 5.8 mph - 0.00 in   Mist
7:01 PM 19.9 °F 13.4 °F 17.1 °F 89% 30.10 in 2.0 mi NW 4.6 mph - 0.00 in Snow Light Snow
7:48 PM 19.4 °F 12.8 °F 17.6 °F 93% 30.11 in 1.8 mi WNW 4.6 mph - 0.00 in Snow Light Snow
8:01 PM 19.9 °F 13.4 °F 18.0 °F 92% 30.11 in 1.2 mi WNW 4.6 mph - 0.00 in Snow Light Snow
8:28 PM 19.4 °F 14.3 °F 17.6 °F 93% 30.11 in 1.8 mi NW 3.5 mph - N/A Snow Light Snow
9:14 PM 17.6 °F 7.3 °F 15.8 °F 93% 30.11 in 2.0 mi ESE 8.1 mph - N/A Snow Light Snow
9:23 PM 17.6 °F 10.7 °F 15.8 °F 93% 30.11 in 1.5 mi SE 4.6 mph - N/A Snow Light Snow
10:01 PM 18.0 °F 3.1 °F 16.0 °F 92% 30.12 in 1.5 mi West 16.1 mph - N/A Snow Light Snow
10:30 PM 17.6 °F 4.3 °F 15.8 °F 93% 30.12 in 2.5 mi West 12.7 mph - 0.00 in Snow Light Snow
11:01 PM 17.1 °F 3.6 °F 15.1 °F 92% 30.12 in 2.5 mi West 12.7 mph - 0.00 in Snow Light Snow
11:27 PM 15.8 °F 3.4 °F 15.8 °F 100% 30.12 in 3.0 mi West 10.4 mph - 0.00 in Snow Light Snow
11:35 PM 15.8 °F 3.4 °F 15.8 °F 100% 30.13 in 2.5 mi West 10.4 mph - 0.00 in Snow Light Snow